West Lebanon, NH

11:23 PM EDT on August 31, 2016 (GMT -0400)
Lebanon Municipal

Weather History for KLEB - July, 2014

Change the Weather History Date:

Saturday, July 19, 2014

  Actual Average Record
Temperature  
Mean Temperature 66 °F -  
Max Temperature 80 °F 83 °F 95 °F (1953)
Min Temperature 54 °F 59 °F 42 °F (1944)
Cooling Degree Days 2    
Growing Degree Days 16 (Base 50)    
Moisture  
Dew Point 56 °F    
Average Humidity 78    
Maximum Humidity 93    
Minimum Humidity 45    
Precipitation  
Precipitation 0.00 in - - ()
Sea Level Pressure  
Sea Level Pressure 30.25 in    
Wind  
Wind Speed 1 mph (NE)    
Max Wind Speed 4 mph    
Max Gust Speed -    
Visibility 8 miles    
Events      
Averages and records for this station are not official NWS values.
T = Trace of Precipitation, MM = Missing Value Source: NWS Daily Summary

Daily Weather History Graph

Daily Weather History Graph

Search for Another Location

Airport or City:

Trip Planner

Search our weather history database for the weather conditions in past years. The results will help you decide how hot, cold, wet, or windy it might be!

Date:

Astronomy

Jul. 19, 2014 Rise Set
Actual Time 5:25 AM EDT 8:25 PM EDT
Civil Twilight 4:50 AM EDT 8:59 PM EDT
Nautical Twilight 4:07 AM EDT 9:42 PM EDT
Astronomical Twilight 3:15 AM EDT 10:34 PM EDT
Moon 12:04 AM EDT (7/19) 1:58 PM EDT (7/19)
Length of Visible Light 16h 08m
Length of Day
15h 00m
Last Quarter, 44% of the Moon is Illuminated
Jul 19
Last Quarter
Jul 26
New
Aug 3
First Quarter
Aug 10
Full
Aug 17
Last Quarter

Hourly Weather History & Observations

Time (EDT) Temp. Dew Point Humidity Pressure Visibility Wind Dir Wind Speed Gust Speed Precip Events Conditions
12:53 AM 55.9 °F 53.1 °F 90% 30.24 in 10.0 mi Calm Calm - N/A   Clear
1:53 AM 55.0 °F 52.0 °F 89% 30.24 in 7.0 mi Calm Calm - N/A   Clear
2:53 AM 54.0 °F 51.1 °F 90% 30.25 in 7.0 mi Calm Calm - N/A   Clear
3:44 AM 54.0 °F 50.0 °F 86% 30.28 in 8.0 mi Calm Calm - N/A   Partly Cloudy
3:53 AM 54.0 °F 50.0 °F 86% 30.26 in 10.0 mi Calm Calm - N/A   Clear
4:27 AM 54.0 °F 51.1 °F 90% 30.28 in 9.0 mi NE 3.5 mph - N/A   Scattered Clouds
4:35 AM 54.0 °F 51.1 °F 90% 30.29 in 8.0 mi Calm Calm - N/A   Mostly Cloudy
4:53 AM 54.0 °F 51.1 °F 90% 30.27 in 9.0 mi NE 3.5 mph - N/A   Overcast
5:53 AM 55.9 °F 53.1 °F 90% 30.28 in 5.0 mi Calm Calm - N/A   Overcast
6:02 AM 55.9 °F 53.1 °F 90% 30.30 in 1.0 mi Calm Calm - N/A   Overcast
6:53 AM 55.9 °F 54.0 °F 93% 30.28 in 1.0 mi Calm Calm - N/A   Overcast
7:53 AM 57.9 °F 54.0 °F 87% 30.30 in 1.5 mi NNW 3.5 mph - N/A   Overcast
8:00 AM 59.0 °F 55.0 °F 87% 30.31 in 4.0 mi NW 3.5 mph - N/A   Overcast
8:39 AM 60.1 °F 55.0 °F 83% 30.31 in 10.0 mi Calm Calm - N/A   Scattered Clouds
8:53 AM 61.0 °F 55.0 °F 81% 30.30 in 10.0 mi Calm Calm - N/A   Partly Cloudy
9:53 AM 66.0 °F 55.9 °F 70% 30.28 in 10.0 mi Calm Calm - N/A   Clear
10:53 AM 70.0 °F 55.9 °F 61% 30.28 in 10.0 mi Calm Calm - N/A   Clear
11:53 AM 73.9 °F 57.0 °F 55% 30.26 in 10.0 mi Calm Calm - N/A   Clear
12:53 PM 75.9 °F 55.9 °F 50% 30.24 in 10.0 mi Calm Calm - N/A   Partly Cloudy
1:53 PM 79.0 °F 55.9 °F 45% 30.22 in 10.0 mi Calm Calm - N/A   Scattered Clouds
2:53 PM 75.0 °F 62.1 °F 64% 30.21 in 10.0 mi Calm Calm - N/A   Overcast
3:53 PM 75.9 °F 55.0 °F 48% 30.21 in 10.0 mi SE 3.5 mph - N/A   Partly Cloudy
4:53 PM 75.0 °F 59.0 °F 57% 30.21 in 10.0 mi Calm Calm - N/A   Clear
5:53 PM 73.0 °F 62.1 °F 68% 30.20 in 10.0 mi Calm Calm - N/A   Clear
6:53 PM 70.0 °F 64.0 °F 81% 30.21 in 10.0 mi Calm Calm - N/A   Clear
7:53 PM 68.0 °F 62.1 °F 81% 30.21 in 10.0 mi Calm Calm - N/A   Clear
8:53 PM 64.9 °F 61.0 °F 87% 30.21 in 10.0 mi South 3.5 mph - N/A   Clear
9:53 PM 64.0 °F 60.1 °F 87% 30.21 in 10.0 mi Calm Calm - N/A   Clear
11:53 PM 61.0 °F 57.0 °F 87% 30.19 in 10.0 mi Calm Calm - N/A   Clear